Location: Bidart
(43.4376°N, 1.5913°W)
Time: 22:49:31
(UTC+00:00)

ATLAS CENTAUR R/B - Pass Details

Date: 19 May 2025
Orbit: 376 x 502 km, 64.6° (Epoch: 11 June)

Event Time Altitude Azimuth Distance (km) Brightness Sun altitude
Rises 20:52:56 0° 218° (SW) 2,465 4.6 -13.1°
Reaches altitude 10° 20:55:01 10° 221° (SW) 1,617 3.7 -13.4°
Maximum altitude 20:58:37 70° 306° (NW) 515 1.3 -13.8°
Drops below altitude 10° 21:02:24 10° 30° (NNE) 1,693 4.0 -14.3°
Sets 21:04:36 0° 33° (NNE) 2,594 4.9 -14.6°
